| time (UTC) | temp C | wind direction | speed KPH | gust KPH | rain 1hr cm | rain 24hr cm | rain mn cm | humidity % | barometer mb |
| 20260906230032 | -17 | 360 | 3.2 | 19.3 | 0.00 | 0.00 | 0.00 | 1013.7 | |
| 20260906224530 | -17 | 360 | 6.4 | 27.4 | 0.00 | 0.00 | 0.00 | 1014.0 | |
| 20260906223035 | -17 | 9 | 3.2 | 11.3 | 0.00 | 0.00 | 0.00 | 1013.8 | |
| 20260906221519 | -17 | 360 | 0.0 | 9.7 | 0.00 | 0.00 | 0.00 | 1013.6 | |
| 20260906220019 | -17 | 360 | 3.2 | 11.3 | 0.00 | 0.00 | 0.00 | 1013.8 | |
| 20260906214520 | -17 | 43 | 4.8 | 11.3 | 0.00 | 0.00 | 0.00 | 1013.9 | |
| 20260906213007 | -17 | 360 | 1.6 | 14.5 | 0.00 | 0.00 | 0.00 | 1014.0 | |
| 20260906211501 | -17 | 360 | 3.2 | 12.9 | 0.00 | 0.00 | 0.00 | 1014.1 | |
| 20260906210107 | -17 | 360 | 3.2 | 19.3 | 0.00 | 0.00 | 0.00 | 1014.2 | |
| 20260906204559 | -17 | 360 | 3.2 | 16.1 | 0.00 | 0.00 | 0.00 | 1014.5 | |
| 20260906203049 | -17 | 44 | 4.8 | 22.5 | 0.00 | 0.00 | 0.00 | 1014.4 | |
| 20260906201559 | -17 | 360 | 3.2 | 22.5 | 0.00 | 0.00 | 0.00 | 1014.5 | |
| 20260906200042 | -17 | 360 | 9.7 | 20.9 | 0.00 | 0.00 | 0.00 | 1014.5 | |
| 20260906194536 | -17 | 360 | 4.8 | 16.1 | 0.00 | 0.00 | 0.00 | 1014.6 | |
| 20260906193032 | -17 | 360 | 4.8 | 16.1 | 0.00 | 0.00 | 0.00 | 1014.6 | |
| 20260906191527 | -17 | 360 | 4.8 | 20.9 | 0.00 | 0.00 | 0.00 | 1014.7 | |
| 20260906190026 | -17 | 360 | 4.8 | 14.5 | 0.00 | 0.00 | 0.00 | 1015.0 | |
| 20260906184530 | -17 | 360 | 6.4 | 12.9 | 0.00 | 0.00 | 0.00 | 1015.0 | |
| 20260906183020 | -17 | 360 | 6.4 | 17.7 | 0.00 | 0.00 | 0.00 | 1015.3 | |
| 20260906181515 | -17 | 360 | 4.8 | 14.5 | 0.00 | 0.00 | 0.00 | 1015.6 | |
| 20260906180006 | -17 | 360 | 4.8 | 16.1 | 0.00 | 0.00 | 0.00 | 1015.7 | |
| 20260906174501 | -17 | 360 | 6.4 | 14.5 | 0.00 | 0.00 | 0.00 | 1016.0 | |
| 20260906173113 | -17 | 360 | 8.0 | 16.1 | 0.00 | 0.00 | 0.00 | 1016.2 | |
| 20260906171553 | -17 | 360 | 6.4 | 16.1 | 0.00 | 0.00 | 0.00 | 1016.4 | |
| 20260906170048 | -17 | 360 | 6.4 | 22.5 | 0.00 | 0.00 | 0.00 | 1016.4 | |
| 20260906164545 | -17 | 360 | 4.8 | 17.7 | 0.00 | 0.00 | 0.00 | 1016.4 | |
| 20260906163041 | -17 | 360 | 9.7 | 16.1 | 0.00 | 0.00 | 0.00 | 1016.4 | |
| 20260906161535 | -17 | 86 | 4.8 | 12.9 | 0.00 | 0.00 | 0.00 | 1016.4 | |
| 20260906160034 | -17 | 36 | 3.2 | 11.3 | 0.00 | 0.00 | 0.00 | 1016.4 | |
| 20260906154527 | -17 | 35 | 3.2 | 12.9 | 0.00 | 0.00 | 0.00 | 1016.3 | |
| 20260906153028 | -17 | 360 | 1.6 | 4.8 | 0.00 | 0.00 | 0.00 | 1016.3 | |
| 20260906151518 | -17 | 360 | 1.6 | 8.0 | 0.00 | 0.00 | 0.00 | 1016.5 | |
| 20260906150017 | -17 | 18 | 0.0 | 4.8 | 0.00 | 0.00 | 0.00 | 1016.5 | |
| 20260906144516 | -17 | 19 | 0.0 | 6.4 | 0.00 | 0.00 | 0.00 | 1016.6 | |
| 20260906143011 | -17 | 19 | 0.0 | 0.0 | 0.00 | 0.00 | 0.00 | 1016.4 | |
| 20260906141600 | -17 | 326 | 0.0 | 0.0 | 0.00 | 0.00 | 0.00 | 1016.3 | |
| 20260906140059 | -17 | 326 | 0.0 | 0.0 | 0.00 | 0.00 | 0.00 | 1016.1 | |
| 20260906134555 | -17 | 326 | 0.0 | 0.0 | 0.00 | 0.00 | 0.00 | 1016.2 | |
| 20260906133106 | -17 | 326 | 0.0 | 0.0 | 0.00 | 0.00 | 0.00 | 1016.1 | |
| 20260906131549 | -17 | 326 | 0.0 | 0.0 | 0.00 | 0.00 | 0.00 | 1015.9 | |
| 20260906130049 | -17 | 326 | 0.0 | 0.0 | 0.00 | 0.00 | 0.00 | 1015.8 | |
| 20260906124535 | -17 | 326 | 0.0 | 0.0 | 0.00 | 0.00 | 0.00 | 1015.7 | |
| 20260906123038 | -17 | 326 | 0.0 | 0.0 | 0.00 | 0.00 | 0.00 | 1015.6 | |
| 20260906121526 | -17 | 326 | 0.0 | 0.0 | 0.00 | 0.00 | 0.00 | 1015.5 | |
| 20260906120025 | -17 | 326 | 0.0 | 0.0 | 0.00 | 0.00 | 0.00 | 1015.6 | |
| 20260906114525 | -17 | 326 | 0.0 | 4.8 | 0.00 | 0.00 | 0.00 | 1015.6 | |
| 20260906113014 | -17 | 326 | 0.0 | 0.0 | 0.00 | 0.00 | 0.00 | 1015.6 | |
| 20260906111509 | -17 | 326 | 1.6 | 3.2 | 0.00 | 0.00 | 0.00 | 1015.5 | |
| 20260906110005 | -17 | 326 | 1.6 | 4.8 | 0.00 | 0.00 | 0.00 | 1015.4 | |
| 20260906104502 | -17 | 326 | 0.0 | 6.4 | 0.00 | 0.00 | 0.00 | 1015.6 | |
| 20260906103057 | -17 | 326 | 0.0 | 4.8 | 0.00 | 0.00 | 0.00 | 1015.5 | |
| 20260906101553 | -17 | 326 | 1.6 | 6.4 | 0.00 | 0.00 | 0.00 | 1015.5 | |
| 20260906100050 | -17 | 326 | 1.6 | 6.4 | 0.00 | 0.00 | 0.00 | 1015.4 | |
| 20260906094558 | -17 | 326 | 3.2 | 6.4 | 0.00 | 0.00 | 0.00 | 1015.5 | |
| 20260906093053 | -17 | 326 | 1.6 | 6.4 | 0.00 | 0.00 | 0.00 | 1015.7 | |
| 20260906091535 | -17 | 326 | 0.0 | 0.0 | 0.00 | 0.00 | 0.00 | 1015.8 | |
| 20260906090047 | -17 | 326 | 0.0 | 8.0 | 0.00 | 0.00 | 0.00 | 1015.6 | |
| 20260906084533 | -17 | 326 | 1.6 | 6.4 | 0.00 | 0.00 | 0.00 | 1015.4 | |
| 20260906083033 | -17 | 326 | 0.0 | 6.4 | 0.00 | 0.00 | 0.00 | 1015.6 | |
| 20260906081519 | -17 | 326 | 0.0 | 6.4 | 0.00 | 0.00 | 0.00 | 1015.6 | |
| 20260906080014 | -17 | 326 | 0.0 | 3.2 | 0.00 | 0.00 | 0.00 | 1015.8 | |
| 20260906074528 | -17 | 326 | 0.0 | 4.8 | 0.00 | 0.00 | 0.00 | 1016.0 | |
| 20260906073005 | -17 | 326 | 0.0 | 0.0 | 0.00 | 0.00 | 0.00 | 1016.0 | |
| 20260906071601 | -17 | 326 | 1.6 | 6.4 | 0.00 | 0.00 | 0.00 | 1016.0 | |
| 20260906070056 | -17 | 326 | 0.0 | 4.8 | 0.00 | 0.00 | 0.00 | 1016.1 | |
| 20260906064553 | -17 | 326 | 3.2 | 8.0 | 0.00 | 0.00 | 0.00 | 1016.0 | |
| 20260906063053 | -17 | 326 | 0.0 | 8.0 | 0.00 | 0.00 | 0.00 | 1016.1 | |
| 20260906061549 | -17 | 326 | 3.2 | 8.0 | 0.00 | 0.00 | 0.00 | 1016.2 | |
| 20260906060039 | -17 | 326 | 1.6 | 14.5 | 0.00 | 0.00 | 0.00 | 1016.4 | |
| 20260906054539 | -17 | 360 | 1.6 | 11.3 | 0.00 | 0.00 | 0.00 | 1016.5 | |
| 20260906053033 | -17 | 360 | 6.4 | 14.5 | 0.00 | 0.00 | 0.00 | 1016.7 | |
| 20260906051530 | -17 | 95 | 3.2 | 14.5 | 0.00 | 0.00 | 0.00 | 1017.0 | |
| 20260906050022 | -17 | 142 | 4.8 | 11.3 | 0.00 | 0.00 | 0.00 | 1016.6 | |
| 20260906044518 | -17 | 360 | 3.2 | 14.5 | 0.00 | 0.00 | 0.00 | 1016.5 | |
| 20260906043016 | -17 | 360 | 8.0 | 16.1 | 0.00 | 0.00 | 0.00 | 1016.2 | |
| 20260906041512 | -17 | 360 | 6.4 | 24.1 | 0.00 | 0.00 | 0.00 | 1016.2 | |
| 20260906040005 | -17 | 360 | 1.6 | 16.1 | 0.00 | 0.00 | 0.00 | 1016.3 | |
| 20260906034600 | -17 | 149 | 8.0 | 22.5 | 0.00 | 0.00 | 0.00 | 1016.4 | |
| 20260906033056 | -17 | 360 | 1.6 | 6.4 | 0.00 | 0.00 | 0.00 | 1016.4 | |
| 20260906031552 | -17 | 360 | 1.6 | 8.0 | 0.00 | 0.00 | 0.00 | 1016.0 | |
| 20260906030051 | -17 | 360 | 3.2 | 11.3 | 0.00 | 0.00 | 0.00 | 1015.9 | |
| 20260906024605 | -17 | 360 | 4.8 | 11.3 | 0.00 | 0.00 | 0.00 | 1015.6 | |
| 20260906023039 | -17 | 360 | 4.8 | 12.9 | 0.00 | 0.00 | 0.00 | 1015.4 | |
| 20260906021534 | -17 | 360 | 4.8 | 11.3 | 0.00 | 0.00 | 0.00 | 1015.4 | |
| 20260906020032 | -17 | 360 | 4.8 | 19.3 | 0.00 | 0.00 | 0.00 | 1015.4 | |
| 20260906014540 | -17 | 360 | 4.8 | 25.7 | 0.00 | 0.00 | 0.00 | 1015.2 | |
| 20260906013025 | -17 | 360 | 9.7 | 19.3 | 0.00 | 0.00 | 0.00 | 1015.5 | |
| 20260906011517 | -17 | 360 | 6.4 | 14.5 | 0.00 | 0.00 | 0.00 | 1015.4 | |
| 20260906010034 | -17 | 360 | 4.8 | 14.5 | 0.00 | 0.00 | 0.00 | 1015.5 | |
| 20260906004509 | -17 | 360 | 4.8 | 14.5 | 0.00 | 0.00 | 0.00 | 1015.6 | |
| 20260906003005 | -17 | 360 | 4.8 | 14.5 | 0.00 | 0.00 | 0.00 | 1015.6 | |
| 20260906001607 | -17 | 360 | 4.8 | 17.7 | 0.00 | 0.00 | 0.00 | 1015.6 | |
| 20260906000056 | -17 | 360 | 3.2 | 22.5 | 0.00 | 0.00 | 0.00 | 1015.6 | |
| 20260905234552 | -17 | 360 | 6.4 | 16.1 | 0.00 | 0.00 | 0.00 | 1015.6 | |
| 20260905233048 | -17 | 269 | 1.6 | 14.5 | 0.00 | 0.00 | 0.00 | 1015.3 | |
| 20260905231545 | -17 | 360 | 0.0 | 8.0 | 0.00 | 0.00 | 0.00 | 1015.5 |